Regional Weather Roundup
Issued by NWS Goodland, KS

Home | Current Version | Previous Version | Text Only | Print | Product List | Glossary Off
Versions: 1 2 3 4 5 6 7 8 9 10 11 12 13 14 15 16 17 18 19 20 21 22 23 24 25 26 27 28 29 30 31 32 33 34 35 36 37 38 39 40 41 42 43 44 45 46 47 48 49 50

000
ASUS43 KGLD 171759
RWRGLD

GOODLAND FORECAST AREA HOURLY WEATHER ROUNDUP
NATIONAL WEATHER SERVICE GOODLAND KS
1100 AM MST FRI NOV 17 2017

...OFFICIAL OBSERVATIONS...

CITY           SKY/WX    TMP DP  RH WIND       PRES   REMARKS
GOODLAND KS    SUNNY     75  32  20 NW18G24   29.59F
HILL CITY KS   SUNNY     68  42  38 N7        29.55F
IMPERIAL NEB   NOT AVBL
MCCOOK NEB     SUNNY     60  37  42 N9        29.58F
AKRON CO       CLOUDY    57  29  34 N15       29.64F
BURLINGTON CO  CLOUDY    74  34  23 W16       29.63F
LIMON CO       SUNNY     69  29  22 W22G30    29.65F
$$

...UNOFFICIAL OBSERVATIONS...

CITY           SKY/WX    TMP DP  RH WIND       PRES   REMARKS
LENORA KS        N/A     64  32  30 CALM        N/A
NORTON KS      SUNNY     63  36  36 CALM      29.56
SHARON SPRINGS   N/A     68  37  31 SW16        N/A
TRENTON NEB      N/A     56  32  40 NE6         N/A
KIT CARSON CO    N/A     72  37  28 MISG        N/A
YUMA CO        FAIR      55  30  38 N20G25    29.62F
$$




USA.gov is the U.S. government's official web portal to all federal, state and local government web resources and services.